Regional Weather Roundup
Issued by NWS Cleveland, OH

Home | Current Version | Previous Version | Graphics & Text | Print | Product List | Glossary On
Versions: 1 2 3 4 5 6 7 8 9 10 11 12 13 14 15 16 17 18 19 20 21 22 23 24 25 26 27 28 29 30 31 32 33 34 35 36 37 38 39 40 41 42 43 44 45 46 47 48 49 50
000
ASUS41 KCLE 191700
RWRCLE
OHIO REGIONAL WEATHER ROUNDUP
NATIONAL WEATHER SERVICE WILMINGTON, OH
1200 PM EST SUN FEB 19 2017

NOTE: "FAIR" INDICATES FEW OR NO CLOUDS BELOW 12,000 FEET WITH NO
SIGNIFICANT WEATHER AND/OR OBSTRUCTIONS TO VISIBILITY.

OHZ001>008-015>018-024>027-034-035-043-044-191800-
   NORTHWEST OHIO

CITY           SKY/WX    TMP DP  RH WIND       PRES   REMARKS
DEFIANCE       FAIR      54  41  61 SW7       30.05S
FINDLAY        FAIR      55  44  66 W12       30.04S
TOLEDO EXPRESS FAIR      56  39  53 W12       30.02S
TOLEDO EXEC    FAIR      58  38  47 W10       30.03R
LIMA           FAIR      54  45  71 W10       30.05F
$$

OHZ009>014-019>023-028>033-038-089-191800-
   NORTHEAST OHIO

CITY           SKY/WX    TMP DP  RH WIND       PRES   REMARKS
CLE-HOPKINS    FAIR      59  37  44 W12       30.03R
CLE-LAKEFRONT  FAIR      47  36  65 W14       30.01R
CUY CO. ARPT   SUNNY     54  37  54 W13G22    30.01R
LORAIN-ELYRIA  FAIR      57  36  45 W13       30.02R
ASHTABULA      FAIR      54  41  61 W14       29.99R
AKRON-CANTON   FAIR      58  41  53 W10       30.00R
WOOSTER        NOT AVBL
MANSFIELD      FAIR      57  43  59 W9        30.03R
YOUNGSTOWN     FAIR      56  41  57 SW10      29.99R
$$

OHZ042-051>053-060>062-070>072-077>081-191800-
  SOUTHWEST OHIO

CITY           SKY/WX    TMP DP  RH WIND       PRES   REMARKS
CINC-COVINGTON CLOUDY    50  47  89 SW5       30.11R
CINC-LUNKEN    CLOUDY    52  47  83 W5        30.13R
HAMILTON       CLOUDY    50  47  89 NW5       30.13R
DAYTON         NOT AVBL
WRIGHT-PAT AFB NOT AVBL
DAYTON GENERAL CLOUDY    47  45  93 SW9       30.10R FOG
WILMINGTON     CLOUDY    48  46  93 W7        30.10R FOG
$$

OHZ036-037-039>041-045>050-054>059-063>069-073>076-082>088-191800-
  CENTRAL AND SOUTHEAST OHIO

CITY           SKY/WX    TMP DP  RH WIND       PRES   REMARKS
COLUMBUS       CLOUDY    51  44  77 W8        30.08R
OSU AIRPORT    CLOUDY    50  45  83 W8        30.08R
BOLTON FIELD   CLOUDY    48  45  87 W8        30.09R FOG
RICKENBACK AFB NOT AVBL
NEWARK         CLOUDY    50  44  80 W12       30.07R
MARION         FAIR      56  43  61 W9        30.05S
LANCASTER      CLOUDY    50  45  83 W12       30.09R HAZE
ZANESVILLE     CLOUDY    51  44  77 SW9       30.06R
NEW PHILLY     FAIR      56  45  66 S8        30.03R
$$




USA.gov is the U.S. government's official web portal to all federal, state and local government web resources and services.